| time (UTC) | temp F | wind direction | speed MPH | gust MPH | rain 1hr in | rain 24hr in | rain mn in | humidity % | barometer mb |
| 20260901204602 | 88 | 153 | 6.0 | 14.0 | 0.00 | 0.00 | 0.00 | 39 | 1018.4 |
| 20260901203058 | 88 | 161 | 4.0 | 14.0 | 0.00 | 0.00 | 0.00 | 41 | 1018.4 |
| 20260901201605 | 88 | 180 | 6.0 | 15.0 | 0.00 | 0.00 | 0.00 | 42 | 1018.5 |
| 20260901200104 | 87 | 105 | 5.0 | 13.0 | 0.00 | 0.00 | 0.00 | 43 | 1018.7 |
| 20260901194605 | 85 | 94 | 3.0 | 10.0 | 0.00 | 0.00 | 0.00 | 47 | 1019.1 |
| 20260901193111 | 85 | 104 | 4.0 | 10.0 | 0.00 | 0.00 | 0.00 | 47 | 1019.4 |
| 20260901191606 | 84 | 108 | 2.0 | 10.0 | 0.00 | 0.00 | 0.00 | 50 | 1019.6 |
| 20260901184603 | 82 | 0 | 1.0 | 6.0 | 0.00 | 0.00 | 0.00 | 53 | 1020.2 |
| 20260901183106 | 82 | 57 | 3.0 | 7.0 | 0.00 | 0.00 | 0.00 | 52 | 1020.4 |
| 20260901181603 | 81 | 31 | 2.0 | 6.0 | 0.00 | 0.00 | 0.00 | 52 | 1020.5 |
| 20260901180105 | 80 | 198 | 2.0 | 7.0 | 0.00 | 0.00 | 0.00 | 56 | 1020.7 |
| 20260901174603 | 79 | 64 | 1.0 | 8.0 | 0.00 | 0.00 | 0.00 | 58 | 1020.7 |
| 20260901173104 | 78 | 102 | 2.0 | 6.0 | 0.00 | 0.00 | 0.00 | 62 | 1020.8 |
| 20260901171605 | 78 | 83 | 1.0 | 5.0 | 0.00 | 0.00 | 0.00 | 59 | 1021.0 |
| 20260901170120 | 77 | 34 | 2.0 | 5.0 | 0.00 | 0.00 | 0.00 | 62 | 1020.9 |
| 20260901164608 | 76 | 76 | 2.0 | 4.0 | 0.00 | 0.00 | 0.00 | 62 | 1020.9 |
| 20260901163105 | 75 | 65 | 0.0 | 4.0 | 0.00 | 0.00 | 0.00 | 66 | 1020.8 |
| 20260901161610 | 74 | 23 | 1.0 | 3.0 | 0.00 | 0.00 | 0.00 | 66 | 1020.9 |
| 20260901160103 | 74 | 344 | 2.0 | 5.0 | 0.00 | 0.00 | 0.00 | 67 | 1020.7 |
| 20260901154615 | 73 | 0 | 1.0 | 4.0 | 0.00 | 0.00 | 0.00 | 71 | 1020.7 |
| 20260901153118 | 72 | 0 | 0.0 | 3.0 | 0.00 | 0.00 | 0.00 | 71 | 1020.6 |
| 20260901151605 | 72 | 0 | 0.0 | 3.0 | 0.00 | 0.00 | 0.00 | 72 | 1020.8 |
| 20260901150110 | 71 | 0 | 1.0 | 3.0 | 0.00 | 0.00 | 0.00 | 72 | 1020.8 |
| 20260901144604 | 71 | 80 | 1.0 | 3.0 | 0.00 | 0.00 | 0.00 | 74 | 1020.7 |
| 20260901143100 | 70 | 15 | 0.0 | 3.0 | 0.00 | 0.00 | 0.00 | 74 | 1020.7 |
| 20260901141604 | 69 | 0 | 0.0 | 1.0 | 0.00 | 0.00 | 0.00 | 75 | 1020.6 |
| 20260901140109 | 67 | 0 | 0.0 | 0.0 | 0.00 | 0.00 | 0.00 | 81 | 1020.7 |
| 20260901134601 | 64 | 0 | 0.0 | 1.0 | 0.00 | 0.00 | 0.00 | 87 | 1020.6 |
| 20260901133113 | 63 | 0 | 0.0 | 2.0 | 0.00 | 0.00 | 0.00 | 88 | 1020.4 |
| 20260901131603 | 62 | 239 | 0.0 | 2.0 | 0.00 | 0.00 | 0.00 | 88 | 1020.2 |
| 20260901130124 | 62 | 0 | 0.0 | 2.0 | 0.00 | 0.00 | 0.00 | 88 | 1020.2 |
| 20260901124629 | 61 | 221 | 1.0 | 2.0 | 0.00 | 0.00 | 0.00 | 88 | 1020.1 |
| 20260901123121 | 61 | 0 | 0.0 | 1.0 | 0.00 | 0.00 | 0.00 | 87 | 1019.9 |
| 20260901121608 | 62 | 271 | 1.0 | 3.0 | 0.00 | 0.00 | 0.00 | 86 | 1019.8 |
| 20260901120121 | 62 | 265 | 0.0 | 2.0 | 0.00 | 0.00 | 0.00 | 88 | 1019.8 |
| 20260901114603 | 62 | 0 | 0.0 | 2.0 | 0.00 | 0.00 | 0.00 | 88 | 1019.8 |
| 20260901113110 | 62 | 0 | 0.0 | 1.0 | 0.00 | 0.00 | 0.00 | 87 | 1019.8 |
| 20260901111559 | 62 | 257 | 0.0 | 1.0 | 0.00 | 0.00 | 0.00 | 87 | 1019.8 |
| 20260901110108 | 62 | 0 | 1.0 | 3.0 | 0.00 | 0.00 | 0.00 | 87 | 1019.7 |
| 20260901104603 | 61 | 0 | 0.0 | 0.0 | 0.00 | 0.00 | 0.00 | 87 | 1019.6 |
| 20260901103102 | 62 | 0 | 0.0 | 0.0 | 0.00 | 0.00 | 0.00 | 86 | 1019.7 |
| 20260901101605 | 62 | 0 | 0.0 | 0.0 | 0.00 | 0.00 | 0.00 | 86 | 1019.7 |
| 20260901100106 | 63 | 0 | 0.0 | 1.0 | 0.00 | 0.00 | 0.00 | 84 | 1019.7 |
| 20260901094603 | 63 | 0 | 0.0 | 2.0 | 0.00 | 0.00 | 0.00 | 84 | 1019.7 |
| 20260901093100 | 63 | 0 | 0.0 | 2.0 | 0.00 | 0.00 | 0.00 | 83 | 1019.8 |
| 20260901091605 | 64 | 0 | 0.0 | 2.0 | 0.00 | 0.00 | 0.00 | 82 | 1019.7 |
| 20260901084604 | 64 | 0 | 0.0 | 1.0 | 0.00 | 0.10 | 0.00 | 81 | 1019.7 |
| 20260901083107 | 65 | 0 | 0.0 | 2.0 | 0.00 | 0.10 | 0.00 | 80 | 1019.5 |
| 20260901081603 | 65 | 0 | 0.0 | 4.0 | 0.00 | 0.10 | 0.00 | 80 | 1019.5 |
| 20260901080109 | 65 | 0 | 0.0 | 2.0 | 0.00 | 0.10 | 0.00 | 81 | 1019.6 |
| 20260901074604 | 65 | 246 | 1.0 | 3.0 | 0.00 | 0.17 | 0.00 | 82 | 1019.7 |
| 20260901073105 | 65 | 0 | 0.0 | 2.0 | 0.00 | 0.17 | 0.00 | 80 | 1019.6 |
| 20260901071606 | 65 | 0 | 0.0 | 2.0 | 0.00 | 0.17 | 0.00 | 80 | 1019.6 |
| 20260901070106 | 66 | 0 | 0.0 | 2.0 | 0.00 | 0.17 | 0.00 | 79 | 1019.6 |
| 20260901064600 | 66 | 0 | 0.0 | 2.0 | 0.00 | 0.17 | 0.17 | 78 | 1019.5 |
| 20260901063115 | 66 | 0 | 0.0 | 3.0 | 0.00 | 0.17 | 0.17 | 78 | 1019.7 |
| 20260901061621 | 66 | 0 | 0.0 | 3.0 | 0.00 | 0.17 | 0.17 | 78 | 1019.6 |
| 20260901060106 | 66 | 0 | 0.0 | 2.0 | 0.00 | 0.17 | 0.17 | 79 | 1019.6 |
| 20260901054602 | 67 | 0 | 0.0 | 2.0 | 0.00 | 0.17 | 0.17 | 79 | 1019.4 |
| 20260901053107 | 67 | 275 | 0.0 | 3.0 | 0.00 | 0.17 | 0.17 | 78 | 1019.4 |
| 20260901051618 | 68 | 0 | 0.0 | 2.0 | 0.00 | 0.17 | 0.17 | 77 | 1019.3 |
| 20260901050109 | 68 | 317 | 0.0 | 3.0 | 0.00 | 0.17 | 0.17 | 78 | 1019.1 |
| 20260901044604 | 68 | 245 | 1.0 | 4.0 | 0.00 | 0.17 | 0.17 | 77 | 1019.2 |
| 20260901043108 | 68 | 0 | 2.0 | 5.0 | 0.00 | 0.17 | 0.17 | 79 | 1019.1 |
| 20260901041603 | 69 | 0 | 0.0 | 1.0 | 0.00 | 0.17 | 0.17 | 80 | 1018.9 |
| 20260901040106 | 70 | 0 | 0.0 | 1.0 | 0.00 | 0.17 | 0.17 | 78 | 1018.7 |
| 20260901034609 | 70 | 0 | 0.0 | 2.0 | 0.00 | 0.17 | 0.17 | 77 | 1018.5 |
| 20260901033115 | 71 | 0 | 0.0 | 3.0 | 0.00 | 0.17 | 0.17 | 74 | 1018.3 |
| 20260901031604 | 71 | 238 | 0.0 | 3.0 | 0.00 | 0.17 | 0.17 | 74 | 1018.0 |
| 20260901030105 | 71 | 0 | 0.0 | 2.0 | 0.00 | 0.17 | 0.17 | 74 | 1017.9 |
| 20260901024615 | 71 | 0 | 0.0 | 3.0 | 0.00 | 0.17 | 0.17 | 75 | 1017.9 |
| 20260901023106 | 72 | 0 | 0.0 | 2.0 | 0.00 | 0.17 | 0.17 | 74 | 1017.9 |
| 20260901021605 | 72 | 238 | 0.0 | 2.0 | 0.00 | 0.17 | 0.17 | 74 | 1017.9 |
| 20260901020101 | 73 | 237 | 0.0 | 3.0 | 0.00 | 0.17 | 0.17 | 73 | 1017.8 |
| 20260901014610 | 74 | 0 | 0.0 | 1.0 | 0.00 | 0.17 | 0.17 | 72 | 1017.7 |
| 20260901013101 | 75 | 0 | 0.0 | 1.0 | 0.00 | 0.17 | 0.17 | 70 | 1017.7 |
| 20260901011607 | 76 | 0 | 0.0 | 1.0 | 0.00 | 0.17 | 0.17 | 68 | 1017.6 |
| 20260901010115 | 76 | 0 | 0.0 | 2.0 | 0.00 | 0.17 | 0.17 | 65 | 1017.7 |
| 20260901004618 | 76 | 0 | 0.0 | 3.0 | 0.00 | 0.17 | 0.17 | 65 | 1017.9 |
| 20260901003102 | 76 | 0 | 0.0 | 3.0 | 0.00 | 0.17 | 0.17 | 65 | 1017.9 |
| 20260901001606 | 77 | 104 | 1.0 | 6.0 | 0.00 | 0.17 | 0.17 | 63 | 1018.0 |
| 20260901000109 | 77 | 0 | 0.0 | 3.0 | 0.00 | 0.17 | 0.17 | 62 | 1018.0 |
| 20260831234603 | 77 | 0 | 0.0 | 6.0 | 0.00 | 0.17 | 0.17 | 63 | 1018.3 |
| 20260831233105 | 78 | 111 | 2.0 | 6.0 | 0.00 | 0.17 | 0.17 | 60 | 1018.4 |
| 20260831231609 | 78 | 103 | 1.0 | 6.0 | 0.00 | 0.17 | 0.17 | 60 | 1018.4 |
| 20260831230059 | 79 | 0 | 1.0 | 6.0 | 0.00 | 0.17 | 0.17 | 58 | 1018.6 |
| 20260831224610 | 78 | 180 | 1.0 | 4.0 | 0.00 | 0.17 | 0.17 | 61 | 1019.1 |
| 20260831223107 | 77 | 60 | 1.0 | 7.0 | 0.00 | 0.17 | 0.17 | 61 | 1019.4 |
| 20260831221610 | 78 | 86 | 1.0 | 4.0 | 0.00 | 0.17 | 0.17 | 60 | 1019.4 |
| 20260831220103 | 77 | 0 | 0.0 | 9.0 | 0.00 | 0.17 | 0.17 | 64 | 1019.7 |
| 20260831214607 | 78 | 76 | 2.0 | 8.0 | 0.00 | 0.17 | 0.17 | 63 | 1019.8 |
| 20260831213101 | 78 | 61 | 4.0 | 10.0 | 0.00 | 0.17 | 0.17 | 63 | 1020.1 |
| 20260831211601 | 76 | 134 | 2.0 | 9.0 | 0.00 | 0.17 | 0.17 | 67 | 1020.1 |
| 20260831210106 | 76 | 61 | 2.0 | 6.0 | 0.00 | 0.17 | 0.17 | 67 | 1020.3 |